Location: Bun Machan
(52.1403°N, 7.3744°W)
Time: 03:50:36
(UTC+00:00)

X-37B - Pass Details

Date: 23 June 2021
Orbit: 383 x 392 km, 45.0° (Epoch: 01 July)

Event Time Altitude Azimuth Distance (km) Brightness Sun altitude
Rises 22:04:24 0° 218° (SW) 2,249 4.3 -7.9°
Reaches altitude 10° 22:07:14 10° 190° (S) 1,399 3.0 -8.1°
Maximum altitude 22:08:51 13° 159° (SSE) 1,218 2.5 -8.2°
Enters shadow 22:10:00 12° 136° (SE) 1,313 2.6 -8.3°
